Change the Weather History Date:

Saturday, February 15, 2014

  Actual Average Record
Temperature  
Mean Temperature 11 °F -  
Max Temperature 29 °F 17 °F 29 °F (2014)
Min Temperature -7 °F -7 °F -47 °F (2011)
Degree Days  
Heating Degree Days 54    
Moisture  
Dew Point 5 °F    
Average Humidity 70    
Maximum Humidity 78    
Minimum Humidity 57    
Precipitation  
Precipitation 0.00 in 0.02 in - ()
Sea Level Pressure  
Sea Level Pressure 29.22 in    
Wind  
Wind Speed 12 mph ()    
Max Wind Speed 20 mph    
Max Gust Speed 29 mph    
Visibility 19.9 miles    
Events Snow    
Averages and records for this station are not official NWS values.
T = Trace of Precipitation, MM = Missing Value Source: Averaged Metar Reports

Daily Weather History Graph

Daily Weather History Graph

Search for Another Location

Airport or City:

Trip Planner

Search our weather history database for the weather conditions in past years. The results will help you decide how hot, cold, wet, or windy it might be!

Date:

Astronomy

Feb. 15, 2014 Rise Set
Actual Time 8:55 AM PST 5:40 PM PST
Civil Twilight 8:05 AM PST 6:30 PM PST
Nautical Twilight 7:10 AM PST 7:25 PM PST
Astronomical Twilight 6:16 AM PST 8:20 PM PST
Moon 7:26 PM PST (2/15) 8:27 AM PST (2/15)
Length of Visible Light 10h 25m
Length of Day
8h 45m
Full, 99% of the Moon is Illuminated
Feb 15
Full
Feb 22
Last Quarter
Mar 1
New
Mar 8
First Quarter
Mar 16
Full

Hourly Weather History & Observations

Time (PST) Temp. Windchill Dew Point Humidity Pressure Visibility Wind Dir Wind Speed Gust Speed Precip Events Conditions
12:00 AM -0.4 °F -17.6 °F -7.6 °F 72% 29.44 in 20.0 mi North 11.5 mph 18.4 mph N/A   Scattered Clouds
1:00 AM -0.4 °F -19.2 °F -7.6 °F 72% 29.45 in 20.0 mi North 13.8 mph - N/A   Partly Cloudy
2:00 AM -0.4 °F -22.3 °F -7.6 °F 72% 29.45 in 20.0 mi NNE 19.6 mph 26.5 mph N/A   Mostly Cloudy
3:00 AM -0.4 °F -21.7 °F -7.6 °F 72% 29.43 in 20.0 mi NNE 18.4 mph 28.8 mph N/A   Overcast
4:00 AM -2 °F - -9 °F 57% 29.42 in 19 mi NNE 12.7 mph - -   Overcast
4:00 AM -2.2 °F -22.2 °F -9.4 °F 71% 29.42 in 20.0 mi NNE 15.0 mph - N/A   Overcast
5:00 AM -0.4 °F -19.2 °F -7.6 °F 72% 29.40 in 20.0 mi NE 13.8 mph 25.3 mph N/A   Overcast
6:00 AM -0.4 °F -18.4 °F -7.6 °F 72% 29.37 in 20.0 mi NE 12.7 mph 20.7 mph N/A Snow Low Drifting Snow
7:00 AM 1.4 °F -16.9 °F -4.0 °F 78% 29.34 in 20.0 mi North 13.8 mph 25.3 mph N/A Snow Low Drifting Snow
8:00 AM 5.0 °F -9.1 °F -2.2 °F 72% 29.31 in 20.0 mi NE 9.2 mph - N/A Snow Low Drifting Snow
8:20 AM 5.0 °F -12.3 °F -0.4 °F 78% 29.30 in 20.0 mi NNE 13.8 mph 20.7 mph N/A Snow Low Drifting Snow
9:00 AM 6.8 °F -10.7 °F -0.4 °F 72% 29.28 in 20.0 mi NNE 15.0 mph 24.2 mph N/A Snow Low Drifting Snow
9:56 AM 10.4 °F -6.0 °F 3.2 °F 73% 29.25 in 20.0 mi NNE 15.0 mph 23.0 mph N/A Snow Low Drifting Snow
10:00 AM 9 °F - 2 °F 60% 29.26 in 19 mi NNE 13.8 mph - -   Overcast
10:00 AM 8.6 °F -7.7 °F 1.4 °F 73% 29.26 in 20.0 mi NNE 13.8 mph 23.0 mph N/A Snow Low Drifting Snow
11:00 AM 10.4 °F -6.6 °F 3.2 °F 73% 29.25 in 20.0 mi North 16.1 mph 24.2 mph N/A Snow Low Drifting Snow
12:00 PM 14.0 °F -3.0 °F 6.8 °F 73% 29.21 in 20.0 mi North 18.4 mph - N/A Snow Low Drifting Snow
1:00 PM 17.6 °F 3.7 °F 10.4 °F 73% 29.19 in 20.0 mi NNE 13.8 mph 20.7 mph N/A Snow Low Drifting Snow
2:00 PM 23.0 °F 13.1 °F 14.0 °F 68% 29.16 in 20.0 mi NNE 9.2 mph 21.9 mph N/A Snow Low Drifting Snow
3:00 PM 24.8 °F 16.1 °F 15.8 °F 69% 29.13 in 20.0 mi NNE 8.1 mph - N/A   Overcast
4:00 PM 26 °F - 17 °F 59% 29.11 in 19 mi North 8.1 mph - -   Overcast
4:00 PM 24.8 °F 16.1 °F 17.6 °F 74% 29.11 in 20.0 mi North 8.1 mph - N/A   Overcast
5:00 PM 26.6 °F 17.5 °F 17.6 °F 69% 29.09 in 20.0 mi NNE 9.2 mph - N/A   Overcast
6:00 PM 28.4 °F 19.1 °F 17.6 °F 64% 29.06 in 20.0 mi NNE 10.4 mph - N/A   Overcast
7:00 PM 26.6 °F 17.5 °F 17.6 °F 69% 29.03 in 20.0 mi North 9.2 mph - N/A   Mostly Cloudy
8:00 PM 26.6 °F 17.5 °F 17.6 °F 69% 29.00 in 20.0 mi North 9.2 mph - N/A   Overcast
9:00 PM 24.8 °F 12.9 °F 15.8 °F 69% 28.99 in 20.0 mi North 13.8 mph - N/A   Overcast
10:00 PM 25 °F - 16 °F 58% 28.97 in 19 mi North 10.4 mph - -   Overcast
10:00 PM 24.8 °F 14.6 °F 15.8 °F 69% 28.97 in 20.0 mi North 10.4 mph 17.3 mph N/A   Overcast
11:00 PM 24.8 °F - 15.8 °F 69% 28.94 in 20.0 mi NE 2.3 mph - N/A   Overcast